User: anonymous   Login
Location: Caltech
(34.1382°N, 118.1253°W)
Time: 17:20:23
(UTC-07:00)
Language:

ITAMSAT 1 - Orbit

View from above orbital plane
View from above orbital plane
View from above satellite
View from above satellite

Ground track
Ground track

The orbit data is extracted from the following two-line orbital elements,

1 22826U 93061D   17177.87731605 +.00000000 +00000-0 +17719-4 0  9998
2 22826 098.8069 143.6590 0007915 297.5060 062.5317 14.30328058238967
Epoch (UTC): 26 June 2017 21:03:20
Eccentricity: 0.0007915
inclination: 98.8069°
perigee height: 785 km
apogee height: 796 km
right ascension of ascending node: 143.6590°
argument of perigee: 297.5060°
revolutions per day: 14.30328058
mean anomaly at epoch: 62.5317°
orbit number at epoch: 23896

The dashed part of the orbit path shows where the satellite is in the earth's shadow,  

DLR